Regional Weather Roundup
Issued by NWS

Home | Current Version | Previous Version | Text Only | Print | Product List | Glossary Off
Versions: 1 2 3 4 5 6 7 8 9 10 11 12 13 14 15 16 17 18 19 20 21 22 23 24 25 26 27 28 29 30 31 32 33 34 35 36 37 38 39 40 41 42 43 44 45 46 47 48 49 50

000
ASUS45 KCYS 200910
RWRWY

WYOMING REGIONAL WEATHER ROUNDUP
NATIONAL WEATHER SERVICE CHEYENNE WY
300 AM MDT SUN MAY 20 2018

NOTE:  "FAIR" INDICATES FEW OR NO CLOUDS BELOW 12,000 FEET
WITH NO SIGNIFICANT WEATHER AND/OR OBSTRUCTIONS TO VISIBILITY.

WYZ001-201000-
YELLOWSTONE NATIONAL PARK

CITY           SKY/WX    TMP DP  RH WIND       PRES   REMARKS
LK YELLOWSTONE   N/A     30  28  92 CALM      30.20F
W YELLOWSTONE  NOT AVBL

$$
WYZ002>013-054>058-071-098>099-201000-
NORTHERN WYOMING

CITY           SKY/WX    TMP DP  RH WIND       PRES   REMARKS
JACKSON        MOCLDY    43  39  86 N7        30.15F
CODY           FAIR      38  36  92 SE5       30.15F WCI  34
GREYBULL       FAIR      49  42  77 E6        30.14S
WORLAND        CLOUDY    48  42  80 S10       30.14F
SHERIDAN       FAIR      36  35  96 SW7       30.14F WCI  30
BUFFALO        FAIR      42  39  89 S17       30.16F
GILLETTE       FAIR      43  34  70 S13       30.21F
NEWCASTLE      FAIR      37  36  93 E3        30.27S

$$
WYZ014>020-022>026-101>103-201000-
CENTRAL WYOMING

CITY           SKY/WX    TMP DP  RH WIND       PRES   REMARKS
BIG PINEY      CLOUDY    42  39  89 SW5       30.19F
PINEDALE       PTSUNNY   36  36 100 CALM      30.19S
DUBOIS         CLOUDY    39  36  87 CALM      30.19F
LANDER         CLOUDY    44  41  89 NW6       30.16F
RIVERTON       CLOUDY    43  40  89 NE5       30.17F
CASPER         MOCLDY    40  40 100 E9        30.20S WCI  34
DOUGLAS        CLOUDY    39  39 100 SE10      30.24F WCI  32

$$
WYZ021-027>030-104>119-201000-
SOUTHERN WYOMING

CITY           SKY/WX    TMP DP  RH WIND       PRES   REMARKS
EVANSTON       FAIR      43  39  86 E17       30.12S
KEMMERER       FAIR      37  36  93 NE9       30.17S WCI  31
FORT BRIDGER   FAIR      39  39 100 NE8       30.17F WCI  34
ROCK SPRINGS   FAIR      38  36  92 E8        30.17F WCI  32
DIXON          FAIR      38  35  89 E6        30.16F WCI  33
RAWLINS        MOCLDY    37  36  96 NE13      30.19S WCI  29
SARATOGA       FAIR      32  32 100 CALM      30.18S
LARAMIE        FAIR      34  34 100 SE9       30.19F WCI  27
CHEYENNE       FOG       38  38 100 E6        30.23F VSB 1/4 WCI  33
TORRINGTON     CLOUDY    43  42  97 CALM      30.24F
PINE BLUFFS    CLOUDY    37  37 100 NE3       30.24F

$$



USA.gov is the U.S. government's official web portal to all federal, state and local government web resources and services.